Tracking 19709 objects as of 20-Jun-2019
HD Live streaming from Space Station
objects crossing your sky now

COSMOS 1375 DEB

Track COSMOS 1375 DEB now!
10-day predictions


NORAD ID: 17794
Int'l Code: 1982-055AL
Perigee: 893.3 km
Apogee: 960.6 km
Inclination: 65.8 °
Period: 103.4 minutes
Semi major axis: 7297 km
RCS: 0.0068 m2 (small)
Launch date: June 6, 1982
Source: Commonwealth of Independent States (former USSR) (CIS)
Launch site: PLESETSK MISSILE AND SPACE COMPLEX (PKMTR)

Note: This is SATELLITE DEBRIS
aabbcc
Your satellite tracking list
Your tracking list is empty




NASA's NSSDC Master Catalog

Two Line Element Set (TLE):
1 17794U 82055AL  19171.52215562  .00000275  00000-0  27594-3 0  9999
2 17794  65.8217 321.9970 0046103 175.4573 184.6927 13.92531812696111
Source of the keplerian elements: AFSPC